Time,TemperatureF,DewpointF,PressureIn,WindDirection,WindDirectionDegrees,WindSpeedMPH,WindSpeedGustMPH,Humidity,HourlyPrecipIn,Conditions,Clouds,dailyrainin,SoftwareType,DateUTC
2013-07-28 08:13:00,71.0,67.0,29.98,SSW,209,0.0,1.0,87,0.00,,,0.00,,2013-07-28 12:13:00,
2013-07-28 08:22:00,72.0,67.0,29.98,SSW,209,0.0,1.0,85,0.00,,,0.00,,2013-07-28 12:22:00,
2013-07-28 08:33:00,73.0,68.0,29.98,SSW,209,1.0,2.0,83,0.00,,,0.00,,2013-07-28 12:33:00,
2013-07-28 08:43:00,74.0,66.0,29.98,SSW,209,0.0,4.0,77,0.00,,,0.00,,2013-07-28 12:43:00,
2013-07-28 08:53:00,75.0,66.0,29.98,SSW,209,0.0,1.0,73,0.00,,,0.00,,2013-07-28 12:53:00,
2013-07-28 09:12:00,76.0,65.0,29.98,SSW,207,0.0,3.0,70,0.00,,,0.00,,2013-07-28 13:12:00,
2013-07-28 09:22:00,76.0,66.0,29.97,SSW,207,0.0,1.0,71,0.00,,,0.00,,2013-07-28 13:22:00,
2013-07-28 09:32:00,77.0,66.0,29.97,SSW,207,0.0,2.0,70,0.00,,,0.00,,2013-07-28 13:32:00,
2013-07-28 09:43:00,77.0,66.0,29.97,SSW,207,0.0,1.0,68,0.00,,,0.00,,2013-07-28 13:43:00,
2013-07-28 09:53:00,77.0,66.0,29.97,South,183,0.0,3.0,69,0.00,,,0.00,,2013-07-28 13:53:00,
2013-07-28 10:02:00,77.0,65.0,29.97,South,175,0.0,1.0,67,0.00,,,0.00,,2013-07-28 14:02:00,
2013-07-28 10:43:00,78.0,67.0,29.96,SSE,165,0.0,2.0,68,0.00,,,0.00,,2013-07-28 14:43:00,
2013-07-28 10:53:00,78.0,67.0,29.96,SSE,165,0.0,2.0,70,0.00,,,0.00,,2013-07-28 14:53:00,
2013-07-28 11:03:00,78.0,67.0,29.96,SSE,163,0.0,4.0,70,0.00,,,0.00,,2013-07-28 15:03:00,
2013-07-28 11:13:00,78.0,68.0,29.96,ENE,63,0.0,7.0,71,0.00,,,0.00,,2013-07-28 15:13:00,
2013-07-28 11:23:00,78.0,68.0,29.96,ENE,63,0.0,5.0,71,0.00,,,0.00,,2013-07-28 15:23:00,
2013-07-28 11:32:00,79.0,69.0,29.96,ENE,59,1.0,4.0,71,0.00,,,0.00,,2013-07-28 15:32:00,
2013-07-28 11:43:00,78.0,68.0,29.96,SW,217,1.0,6.0,71,0.00,,,0.00,,2013-07-28 15:43:00,
2013-07-28 11:53:00,78.0,69.0,29.96,SSW,209,1.0,6.0,73,0.00,,,0.00,,2013-07-28 15:53:00,
2013-07-28 12:03:00,78.0,68.0,29.96,SSW,200,0.0,2.0,72,0.00,,,0.00,,2013-07-28 16:03:00,
2013-07-28 12:12:00,78.0,68.0,29.96,South,188,0.0,2.0,72,0.00,,,0.00,,2013-07-28 16:12:00,
2013-07-28 12:22:00,78.0,68.0,29.96,SSE,148,0.0,4.0,71,0.00,,,0.00,,2013-07-28 16:22:00,
2013-07-28 12:33:00,78.0,68.0,29.96,SW,215,1.0,5.0,71,0.00,,,0.00,,2013-07-28 16:33:00,
2013-07-28 12:43:00,79.0,69.0,29.96,South,171,0.0,4.0,71,0.00,,,0.00,,2013-07-28 16:43:00,
2013-07-28 12:52:00,79.0,68.0,29.96,NE,55,0.0,5.0,70,0.00,,,0.00,,2013-07-28 16:52:00,
2013-07-28 13:02:00,79.0,68.0,29.96,East,87,0.0,4.0,69,0.00,,,0.00,,2013-07-28 17:02:00,
2013-07-28 13:13:00,79.0,67.0,29.96,NE,34,1.0,6.0,67,0.00,,,0.00,,2013-07-28 17:13:00,
2013-07-28 13:23:00,79.0,66.0,29.96,NE,37,0.0,6.0,65,0.00,,,0.00,,2013-07-28 17:23:00,
2013-07-28 13:33:00,79.0,67.0,29.97,NE,44,0.0,3.0,66,0.00,,,0.00,,2013-07-28 17:33:00,
2013-07-28 14:03:00,77.0,66.0,29.97,WSW,257,0.0,5.0,68,0.00,,,0.00,,2013-07-28 18:03:00,
2013-07-28 14:13:00,76.0,65.0,29.96,SW,221,0.0,3.0,70,0.00,,,0.00,,2013-07-28 18:13:00,
2013-07-28 14:22:00,76.0,67.0,29.96,WSW,242,0.0,7.0,73,0.00,,,0.00,,2013-07-28 18:22:00,
2013-07-28 14:33:00,76.0,68.0,29.96,ENE,68,0.0,5.0,76,0.00,,,0.00,,2013-07-28 18:33:00,
2013-07-28 14:43:00,76.0,68.0,29.96,ENE,68,0.0,5.0,76,0.00,,,0.00,,2013-07-28 18:43:00,
2013-07-28 14:52:00,76.0,68.0,29.96,ENE,68,0.0,5.0,76,0.00,,,0.00,,2013-07-28 18:52:00,
2013-07-28 15:03:00,76.0,68.0,29.96,ENE,68,0.0,5.0,76,0.00,,,0.00,,2013-07-28 19:03:00,
2013-07-28 15:12:00,77.0,68.0,29.93,ENE,62,0.0,6.0,75,0.00,,,0.00,,2013-07-28 19:12:00,
2013-07-28 15:23:00,78.0,69.0,29.93,NE,56,1.0,4.0,74,0.00,,,0.00,,2013-07-28 19:23:00,
2013-07-28 15:33:00,79.0,70.0,29.93,SE,145,0.0,7.0,73,0.00,,,0.00,,2013-07-28 19:33:00,
2013-07-28 15:52:00,80.0,69.0,29.92,SSW,192,0.0,7.0,70,0.00,,,0.00,,2013-07-28 19:52:00,
2013-07-28 16:03:00,79.0,68.0,29.92,ENE,64,0.0,5.0,70,0.00,,,0.00,,2013-07-28 20:03:00,
2013-07-28 16:13:00,79.0,68.0,29.92,South,188,1.0,4.0,70,0.00,,,0.00,,2013-07-28 20:13:00,
2013-07-28 16:23:00,79.0,68.0,29.93,SW,224,0.0,5.0,69,0.00,,,0.00,,2013-07-28 20:23:00,
2013-07-28 16:33:00,79.0,68.0,29.93,NE,44,1.0,7.0,70,0.00,,,0.00,,2013-07-28 20:33:00,
2013-07-28 16:52:00,79.0,68.0,29.93,NW,322,0.0,10.0,69,0.00,,,0.00,,2013-07-28 20:52:00,
2013-07-28 17:03:00,79.0,68.0,29.92,NE,56,2.0,6.0,69,0.00,,,0.00,,2013-07-28 21:03:00,
2013-07-28 17:13:00,79.0,68.0,29.92,NE,43,1.0,6.0,69,0.00,,,0.00,,2013-07-28 21:13:00,
2013-07-28 17:23:00,79.0,68.0,29.93,ENE,71,0.0,5.0,69,0.00,,,0.00,,2013-07-28 21:23:00,
2013-07-28 17:33:00,79.0,68.0,29.94,ENE,65,0.0,8.0,68,0.00,,,0.00,,2013-07-28 21:33:00,
2013-07-28 17:44:00,79.0,67.0,29.94,ENE,65,0.0,4.0,67,0.00,,,0.00,,2013-07-28 21:44:00,
2013-07-28 17:52:00,79.0,68.0,29.95,ENE,65,0.0,1.0,68,0.00,,,0.00,,2013-07-28 21:52:00,
2013-07-28 18:02:00,79.0,67.0,29.95,SSW,209,0.0,3.0,67,0.00,,,0.00,,2013-07-28 22:02:00,
2013-07-28 18:12:00,78.0,66.0,29.95,SSW,208,0.0,2.0,66,0.00,,,0.00,,2013-07-28 22:12:00,
2013-07-28 18:22:00,78.0,67.0,29.95,ESE,123,0.0,3.0,69,0.00,,,0.00,,2013-07-28 22:22:00,
2013-07-28 18:32:00,78.0,68.0,29.96,ESE,123,0.0,1.0,71,0.00,,,0.00,,2013-07-28 22:32:00,
2013-07-28 18:43:00,76.0,69.0,29.96,ESE,123,0.0,0.0,79,0.01,,,0.01,,2013-07-28 22:43:00,
2013-07-28 18:52:00,75.0,69.0,29.97,ESE,123,0.0,0.0,82,0.05,,,0.05,,2013-07-28 22:52:00,
2013-07-28 19:03:00,74.0,69.0,29.97,ESE,123,0.0,1.0,85,0.08,,,0.08,,2013-07-28 23:03:00,
2013-07-28 19:12:00,74.0,70.0,29.96,ESE,123,0.0,1.0,88,0.11,,,0.11,,2013-07-28 23:12:00,
2013-07-28 19:22:00,74.0,71.0,29.96,ESE,123,0.0,0.0,89,0.14,,,0.14,,2013-07-28 23:22:00,
2013-07-28 19:33:00,74.0,71.0,29.96,ESE,123,0.0,0.0,91,0.16,,,0.16,,2013-07-28 23:33:00,
2013-07-28 19:43:00,73.0,70.0,29.96,ESE,123,0.0,0.0,91,0.16,,,0.17,,2013-07-28 23:43:00,
2013-07-28 19:53:00,73.0,70.0,29.96,ESE,123,0.0,1.0,91,0.14,,,0.18,,2013-07-28 23:53:00,
2013-07-28 20:03:00,73.0,70.0,29.97,ESE,123,0.0,1.0,91,0.11,,,0.18,,2013-07-29 00:03:00,
2013-07-28 20:22:00,73.0,70.0,29.97,ESE,123,0.0,1.0,91,0.11,,,0.18,,2013-07-29 00:22:00,
2013-07-28 20:32:00,73.0,70.0,29.97,ESE,123,0.0,1.0,91,0.11,,,0.18,,2013-07-29 00:32:00,